CW7731 Weather Reports


Display with metric or nautical units.
time (UTC)temp
F
wind
direction
speed
MPH
gust
MPH
rain 1hr
in
rain 24hr
in
rain mn
in
humidity
%
barometer
mb
20260506085141 59 325 0.0 1.0 0.00 0.00 0.08 89 1009.2
20260506084127 59 323 0.0 1.0 0.00 0.00 0.08 90 1009.0
20260506083118 59 323 0.0 0.0 0.00 0.00 0.08 91 1009.0
20260506082112 58 323 0.0 0.0 0.00 0.00 0.08 92 1009.1
20260506080138 57 323 0.0 0.0 0.00 0.00 0.08 92 1008.8
20260506073124 57 309 0.0 0.0 0.00 0.00 0.08 93 1009.0
20260506071104 56 302 0.0 0.0 0.01 0.00 0.08 93 1009.0
20260506070117 56 302 0.0 0.0 0.02 0.00 0.08 93 1009.2
20260506062109 55 302 0.0 0.0 0.08 0.00 0.08 92 1009.5
20260506061103 55 302 0.0 0.0 0.07 0.00 0.07 92 1009.5
20260506060109 55 301 0.0 0.0 0.06 0.00 0.06 92 1009.5
20260506051110 55 323 0.0 0.0 0.00 0.00 0.00 92 1009.6
20260506050107 55 323 0.0 0.0 0.00 0.00 0.00 92 1009.3
20260506045135 55 343 0.0 0.0 0.00 0.00 0.00 92 1009.2
20260506044105 55 113 0.0 0.0 0.00 0.00 0.00 92 1009.2
20260506043125 55 113 0.0 0.0 0.00 0.00 0.00 92 1009.2
20260506042132 55 326 0.0 0.0 0.00 0.00 0.00 92 1009.2
20260506041129 55 325 0.0 0.0 0.00 0.00 0.00 92 1009.1
20260506040147 55 327 0.0 0.0 0.00 0.00 0.00 92 1008.8
20260506034109 55 327 0.0 0.0 0.00 0.00 0.00 92 1009.0
20260506033111 55 327 0.0 0.0 0.00 0.00 0.00 92 1009.1
20260506032121 54 327 0.0 0.0 0.00 0.00 0.00 92 1009.3
20260506031116 54 327 0.0 0.0 0.00 0.00 0.00 92 1009.4
20260506030125 54 327 0.0 0.0 0.00 0.00 0.00 92 1009.7
20260506025143 54 327 0.0 0.0 0.00 0.00 0.00 92 1009.9
20260506024129 54 327 0.0 0.0 0.00 0.00 0.00 92 1009.8
20260506023106 54 323 0.0 0.0 0.00 0.00 0.00 92 1009.9
20260506022128 54 323 0.0 0.0 0.00 0.00 0.00 92 1009.8
20260506021138 54 323 0.0 0.0 0.00 0.00 0.00 92 1009.8
20260506020110 54 323 0.0 0.0 0.00 0.00 0.00 92 1009.9
20260506015119 54 323 0.0 0.0 0.00 0.00 0.00 92 1009.9
20260506014142 54 323 0.0 0.0 0.00 0.00 0.00 92 1010.1
20260506012123 54 323 0.0 0.0 0.00 0.00 0.00 92 1010.1
20260506011143 54 323 0.0 0.0 0.00 0.00 0.00 91 1010.4
20260506005135 54 324 0.0 0.0 0.00 0.00 0.00 91 1010.3
20260506004140 54 324 0.0 0.0 0.00 0.00 0.00 91 1010.5
20260506003104 54 324 0.0 0.0 0.00 0.00 0.00 91 1010.3
20260506002123 54 324 0.0 0.0 0.00 0.00 0.00 91 1010.4
20260506001118 54 331 0.0 0.0 0.00 0.00 0.00 91 1010.6
20260506000116 54 331 0.0 0.0 0.00 0.00 0.00 91 1010.7
20260505234121 55 340 0.0 0.0 0.00 0.00 0.00 91 1010.8
20260505231143 56 0 0.0 0.0 0.00 0.00 0.00 91 1010.9
20260505225101 57 0 0.0 0.0 0.00 0.00 0.00 91 1011.0
20260505224131 57 0 0.0 0.0 0.00 0.00 0.00 91 1011.2
20260505222132 56 0 0.0 0.0 0.00 0.00 0.00 91 1011.2
20260505221126 56 0 0.0 0.0 0.00 0.00 0.00 91 1011.3
20260505220140 56 0 0.0 0.0 0.00 0.00 0.00 91 1011.2
20260505215105 56 0 0.0 0.0 0.00 0.00 0.03 91 1011.2
20260505214103 57 0 0.0 0.0 0.00 0.00 0.03 91 1011.4
20260505213117 56 0 0.0 0.0 0.00 0.00 0.03 91 1011.6
20260505212147 56 0 0.0 0.0 0.00 0.00 0.03 91 1011.7
20260505211106 56 0 0.0 0.0 0.00 0.00 0.03 91 1011.8
20260505210117 56 0 0.0 0.0 0.00 0.00 0.03 91 1011.8
20260505205144 57 0 0.0 0.0 0.00 0.00 0.03 91 1011.9
20260505204111 57 0 0.0 0.0 0.00 0.00 0.03 91 1011.9
20260505202131 56 0 0.0 0.0 0.00 0.00 0.03 91 1011.7
20260505201123 56 0 0.0 0.0 0.00 0.00 0.03 91 1011.8
20260505195133 56 0 0.0 0.0 0.00 0.00 0.03 91 1011.9
20260505194114 56 0 0.0 0.0 0.00 0.00 0.03 91 1011.8
20260505192132 56 0 0.0 0.0 0.00 0.00 0.03 91 1011.9
20260505190143 56 0 0.0 0.0 0.00 0.00 0.03 91 1011.8
20260505185105 56 0 0.0 0.0 0.00 0.00 0.03 91 1011.8
20260505184132 56 0 0.0 0.0 0.00 0.00 0.03 91 1011.8
20260505183126 56 0 0.0 0.0 0.00 0.00 0.03 90 1011.8
20260505181106 56 0 0.0 0.0 0.00 0.00 0.03 90 1011.5
20260505180119 56 0 0.0 0.0 0.00 0.00 0.03 90 1011.5
20260505175122 57 0 0.0 0.0 0.00 0.00 0.03 92 1011.4
20260505174106 57 0 0.0 0.0 0.00 0.00 0.03 90 1011.4
20260505173131 57 0 0.0 0.0 0.00 0.00 0.03 90 1011.4
20260505172141 57 0 0.0 1.0 0.00 0.00 0.03 89 1011.4
20260505171128 57 349 0.0 0.0 0.00 0.00 0.03 89 1011.4
20260505170125 57 349 0.0 0.0 0.00 0.00 0.03 89 1011.4
20260505165120 57 349 0.0 0.0 0.00 0.00 0.03 89 1011.5
20260505164134 57 349 0.0 0.0 0.00 0.00 0.03 89 1011.5
20260505163127 57 349 0.0 2.0 0.00 0.00 0.03 89 1011.4
20260505162135 57 338 0.0 1.0 0.00 0.00 0.03 89 1011.5
20260505153142 57 318 0.0 0.0 0.01 0.00 0.03 89 1011.7
20260505152133 57 318 0.0 0.0 0.02 0.00 0.03 88 1011.8
20260505151131 57 318 0.0 0.0 0.03 0.00 0.03 88 1011.8
20260505150115 57 355 0.0 0.0 0.03 0.00 0.03 88 1011.7
20260505140111 58 20 1.0 6.0 0.00 0.00 0.00 86 1012.0
20260505130108 60 336 0.0 0.0 0.00 0.00 0.00 84 1012.3
20260505124138 60 3 0.0 0.0 0.00 0.00 0.00 84 1012.3
20260505123117 60 75 0.0 0.0 0.00 0.00 0.00 84 1012.2
20260505122123 60 85 0.0 0.0 0.00 0.00 0.00 84 1012.4
20260505121135 60 84 0.0 4.0 0.00 0.00 0.00 85 1012.3
20260505115130 59 57 0.0 0.0 0.00 0.00 0.00 87 1012.5
20260505114118 59 79 0.0 0.0 0.00 0.00 0.00 87 1012.5
20260505112137 58 112 0.0 1.0 0.00 0.00 0.00 88 1012.5
20260505110104 59 113 0.0 0.0 0.00 0.00 0.00 88 1012.3
20260505101130 59 93 0.0 7.0 0.00 0.00 0.00 89 1012.3
20260505100108 59 76 0.0 5.0 0.00 0.00 0.00 88 1012.2